Stations météo

réclame
Mon MeteoGroup
Brüssel, Belgique (6451): Température de l'air & dewpoint: 19.02.2018 22:00:00 - 25.02.2018 22:00:00 (CET)Brüssel, Belgique (6451): Vitesse du vent & gusts: 19.02.2018 22:00:00 - 25.02.2018 22:00:00 (CET)Brüssel, Belgique (6451): Direction du vent: 19.02.2018 22:00:00 - 25.02.2018 22:00:00 (CET)Brüssel, Belgique (6451): reduced air pressure: 19.02.2018 22:00:00 - 25.02.2018 22:00:00 (CET)Brüssel, Belgique (6451): visibility: 19.02.2018 22:00:00 - 25.02.2018 22:00:00 (CET)
Date & Time tt [°C] td [°C] ff [km/h] ff [knt] fx [km/h] fx [knt] dd ppp [hPa] vv [km]
25.02.2018 22:00:00 -2,7 -11,3 18 10 - - NE 1028,5 10
25.02.2018 21:00:00 -2,5 -11,2 21 11 32 18 NE 1028,4 10
25.02.2018 20:00:00 -2,1 -11,7 16 9 29 16 ENE 1028,0 10
25.02.2018 19:00:00 -1,7 -12,4 15 8 - - ENE 1028,1 10
25.02.2018 18:00:00 -0,7 -12,7 16 9 32 18 ENE 1027,8 10
25.02.2018 17:00:00 0,2 -13,5 21 11 32 18 ENE 1027,6 10
25.02.2018 16:00:00 0,6 -13,4 22 12 - - NE 1027,6 10
25.02.2018 15:00:00 0,8 -13,0 18 10 40 21 ENE 1027,9 10
25.02.2018 14:00:00 0,4 -14,5 18 10 36 19 ENE 1028,2 10
25.02.2018 13:00:00 0,0 -14,0 18 10 - - E 1028,5 10
25.02.2018 12:00:00 -1,0 -15,3 18 10 40 21 E 1028,8 10
25.02.2018 11:00:00 -1,9 -13,4 21 11 36 19 E 1029,0 10
25.02.2018 10:00:00 -3,1 -11,3 22 12 - - E 1028,7 10
25.02.2018 09:00:00 -3,8 -11,5 15 8 40 21 ENE 1028,4 10
25.02.2018 08:00:00 -4,4 -10,3 16 9 32 18 E 1027,7 10
25.02.2018 07:00:00 -4,0 -11,2 16 9 - - E 1027,4 10
25.02.2018 06:00:00 -3,8 -9,7 18 10 29 16 ENE 1027,0 10
25.02.2018 05:00:00 -3,4 -8,9 16 9 29 16 ENE 1026,4 10
25.02.2018 04:00:00 -3,0 -9,7 16 9 - - E 1026,0 10
25.02.2018 03:00:00 -2,7 -8,6 18 10 29 16 E 1026,0 10
25.02.2018 02:00:00 -2,4 -9,5 16 9 32 18 ENE 1025,8 10
25.02.2018 01:00:00 -1,6 -10,0 18 10 - - ENE - 10
25.02.2018 00:00:00 -1,3 -8,3 15 8 32 18 E 1025,6 10
24.02.2018 23:00:00 -1,1 -8,0 18 10 40 21 ENE 1025,2 10
24.02.2018 22:00:00 -0,7 -7,6 24 13 - - ENE 1024,9 10
24.02.2018 21:00:00 -0,2 -7,0 24 13 40 21 ENE 1024,6 10
24.02.2018 20:00:00 0,4 -7,0 24 13 40 21 ENE 1024,1 10
24.02.2018 19:00:00 1,2 -6,6 21 11 - - ENE 1023,5 10
24.02.2018 18:00:00 2,0 -6,9 24 13 43 23 ENE 1023,1 10
24.02.2018 17:00:00 3,5 -8,0 28 15 47 25 ENE 1022,5 10
24.02.2018 16:00:00 4,0 -9,2 29 16 - - ENE 1022,3 10
24.02.2018 15:00:00 4,5 -9,1 28 15 54 29 ENE 1022,1 10
24.02.2018 14:00:00 4,0 -12,2 29 16 50 27 E 1022,2 10
24.02.2018 13:00:00 2,7 -13,2 26 14 - - E 1022,5 10
24.02.2018 12:00:00 1,8 -12,6 26 14 47 25 E 1022,9 10
24.02.2018 11:00:00 0,3 -13,1 24 13 40 21 E 1022,8 10
24.02.2018 10:00:00 -1,7 -10,9 18 10 - - E 1022,7 10
24.02.2018 09:00:00 -3,3 -11,2 18 10 29 16 E 1022,6 10
24.02.2018 08:00:00 -4,2 -10,6 16 9 29 16 E 1022,1 10
24.02.2018 07:00:00 -4,2 -10,5 13 7 - - ENE 1021,7 10
24.02.2018 06:00:00 -3,7 -10,5 15 8 29 16 E 1021,2 10
24.02.2018 05:00:00 -3,3 -10,1 16 9 36 19 E 1021,1 10
24.02.2018 04:00:00 -3,1 -9,5 18 10 - - ENE 1020,8 10
24.02.2018 03:00:00 -3,1 -8,2 15 8 22 12 ENE 1020,9 10
24.02.2018 02:00:00 -2,7 -7,5 15 8 22 12 ENE 1020,7 10
24.02.2018 01:00:00 -2,9 -6,9 13 7 - - ENE 1020,7 10
24.02.2018 00:00:00 -2,7 -7,2 11 6 22 12 ENE 1020,3 10
23.02.2018 23:00:00 -1,7 -7,7 13 7 22 12 ENE 1020,3 10
23.02.2018 22:00:00 -0,8 -7,8 13 7 - - E 1020,3 10
23.02.2018 21:00:00 -0,7 -7,9 18 10 25 14 ENE 1020,0 10
23.02.2018 20:00:00 0,1 -8,0 14 8 29 16 ENE 1020,0 30
23.02.2018 19:00:00 0,6 -8,4 16 9 - - ENE 1020,0 10
23.02.2018 18:00:00 1,4 -8,1 18 10 40 21 E 1019,8 10
23.02.2018 17:00:00 2,1 -8,1 22 12 36 19 ENE 1019,9 10
23.02.2018 16:00:00 2,5 -9,4 22 12 - - E 1020,0 10
23.02.2018 15:00:00 2,1 -8,3 22 12 36 19 ENE 1020,4 10
23.02.2018 14:00:00 2,0 -7,6 21 11 40 21 ENE 1020,9 10
23.02.2018 13:00:00 1,4 -7,1 22 12 - - E 1021,3 10
23.02.2018 12:00:00 0,6 -6,5 22 12 36 19 E 1021,7 10
23.02.2018 11:00:00 0,0 -5,3 18 10 29 16 ENE 1021,9 10
23.02.2018 10:00:00 -1,3 -5,0 15 8 - - ENE 1022,2 10
23.02.2018 09:00:00 -2,7 -5,0 9 5 14 8 ENE 1022,1 10
23.02.2018 08:00:00 -4,2 -5,9 8 4 11 6 ENE 1022,2 7
23.02.2018 07:00:00 -4,4 -6,0 9 5 - - NE 1022,0 10
23.02.2018 06:00:00 -3,7 -5,7 9 5 14 8 ENE 1021,9 10
23.02.2018 05:00:00 -3,3 -5,8 9 5 18 10 ENE 1021,9 10
23.02.2018 04:00:00 -3,1 -6,0 13 7 - - NE 1021,9 10
23.02.2018 03:00:00 -2,6 -6,0 9 5 14 8 ENE 1022,0 10
23.02.2018 02:00:00 -2,2 -6,4 9 5 22 12 ENE 1022,3 10
23.02.2018 01:00:00 -1,9 -5,6 11 6 - - ENE 1022,4 10
23.02.2018 00:00:00 -0,8 -5,9 16 9 25 14 ENE 1022,4 10
22.02.2018 23:00:00 -0,4 -6,0 16 9 29 16 ENE 1022,5 10
22.02.2018 22:00:00 0,3 -5,7 18 10 - - ENE 1022,2 10
22.02.2018 21:00:00 0,5 -5,2 16 9 32 18 ENE 1022,1 10
22.02.2018 20:00:00 0,8 -5,7 18 10 29 16 NE 1022,2 10
22.02.2018 19:00:00 1,2 -5,6 15 8 - - ENE 1021,9 10
22.02.2018 18:00:00 2,6 -6,0 22 12 43 23 ENE 1021,6 10
22.02.2018 17:00:00 3,5 -5,4 16 9 40 21 ENE 1021,6 10
22.02.2018 16:00:00 3,9 -5,9 24 13 - - ENE 1021,7 10
22.02.2018 15:00:00 4,0 -5,6 26 14 43 23 NE 1022,2 10
22.02.2018 14:00:00 3,9 -5,8 21 11 36 19 ENE 1022,9 10
22.02.2018 13:00:00 3,0 -5,9 22 12 - - ENE 1023,5 10
22.02.2018 12:00:00 2,2 -5,3 18 10 29 16 E 1023,8 10
22.02.2018 11:00:00 0,8 -4,9 13 7 29 16 ENE 1023,9 10
22.02.2018 10:00:00 -1,0 -4,4 13 7 - - ENE 1024,0 10
22.02.2018 09:00:00 -2,4 -5,0 11 6 18 10 ENE 1023,9 10
22.02.2018 08:00:00 -3,5 -5,9 9 5 14 8 ENE 1023,7 6
22.02.2018 07:00:00 -3,7 -5,9 9 5 - - NE 1023,4 7
22.02.2018 06:00:00 -4,3 -6,2 9 5 11 6 NE 1023,2 6
22.02.2018 05:00:00 -4,2 -5,9 9 5 14 8 NE 1023,1 6
22.02.2018 04:00:00 -4,2 -5,9 9 5 - - NE 1023,2 6
22.02.2018 03:00:00 -3,5 -5,3 9 5 14 8 NE 1023,5 6
22.02.2018 02:00:00 -3,3 -5,3 11 6 14 8 NE 1023,8 6
22.02.2018 01:00:00 -3,2 -5,3 8 4 - - NE 1024,2 6
22.02.2018 00:00:00 -2,6 -4,9 8 4 11 6 NE 1024,3 6
21.02.2018 23:00:00 -2,3 -4,7 8 4 11 6 NE 1024,7 6
21.02.2018 22:00:00 -1,9 -4,4 8 4 - - NE 1024,7 6
21.02.2018 21:00:00 -1,2 -3,9 9 5 11 6 NNE 1024,5 7
21.02.2018 20:00:00 -0,5 -3,8 8 4 11 6 NNE 1024,4 7
21.02.2018 19:00:00 -0,1 -3,5 9 5 - - NNE 1024,4 8
21.02.2018 18:00:00 2,2 -3,0 13 7 22 12 NNE 1024,2 10
21.02.2018 17:00:00 3,8 -3,5 18 10 25 14 NE 1024,0 10
21.02.2018 16:00:00 4,2 -3,5 15 8 - - NNE 1024,3 10
21.02.2018 15:00:00 4,0 -3,5 18 10 32 18 NE 1024,9 10
21.02.2018 14:00:00 3,4 -3,8 13 7 25 14 NE 1025,6 8
21.02.2018 13:00:00 2,7 -3,3 16 9 - - NNE 1026,1 8
21.02.2018 12:00:00 1,6 -2,8 9 5 18 10 NE 1026,3 8
21.02.2018 11:00:00 0,1 -2,8 9 5 14 8 ENE 1026,2 7
21.02.2018 10:00:00 -1,2 -3,6 8 4 - - ENE 1026,1 4,8
21.02.2018 09:00:00 -2,6 -4,3 8 4 11 6 NE 1025,6 3,9
21.02.2018 08:00:00 -3,4 -5,0 8 4 11 6 NE 1025,6 3,2
21.02.2018 07:00:00 -3,4 -4,9 9 5 - - NNE 1025,2 3,2
21.02.2018 06:00:00 -3,6 -5,0 8 4 7 4 N 1024,8 3,7
21.02.2018 05:00:00 -2,7 -4,1 5 3 7 4 NNE 1024,5 4,0
21.02.2018 04:00:00 -2,1 -4,0 4 2 - - ENE 1024,2 4,0
21.02.2018 03:00:00 -2,1 -4,0 5 3 7 4 NE 1024,1 4,5
21.02.2018 02:00:00 -1,4 -3,6 2 1 7 4 - 1023,8 5
21.02.2018 01:00:00 -1,7 -3,7 5 3 - - NE 1023,8 5
21.02.2018 00:00:00 -1,3 -3,2 5 3 11 6 NE 1023,1 6
20.02.2018 23:00:00 -0,6 -3,0 5 3 7 4 N 1022,5 6
20.02.2018 22:00:00 0,2 -2,7 4 2 - - NNE 1021,8 7
20.02.2018 21:00:00 0,7 -2,2 9 5 14 8 NE 1021,3 6
20.02.2018 20:00:00 1,4 -1,4 8 4 11 6 NNE 1020,7 8
20.02.2018 19:00:00 2,0 -1,1 5 3 - - NNE 1020,0 7
20.02.2018 18:00:00 3,2 -1,4 9 5 14 8 NE 1019,5 7
20.02.2018 17:00:00 4,0 -0,8 9 5 14 8 NNE 1019,0 8
20.02.2018 16:00:00 4,6 -1,5 9 5 - - NNE 1018,7 9
20.02.2018 15:00:00 4,7 -1,0 5 3 11 6 NNE 1018,7 9
20.02.2018 14:00:00 4,5 -1,6 4 2 7 4 NE 1019,1 8
20.02.2018 13:00:00 4,3 -0,8 2 1 - - - 1019,3 8
20.02.2018 12:00:00 2,7 -0,1 4 2 7 4 NE 1019,1 7
20.02.2018 11:00:00 2,0 -0,4 2 1 7 4 - 1019,2 6
20.02.2018 10:00:00 0,5 -1,3 4 2 - - ENE 1018,9 4,5
20.02.2018 09:00:00 0,0 -1,6 4 2 7 4 N 1018,9 3,5
20.02.2018 08:00:00 -0,5 -1,6 0 0 11 6 N 1018,4 2,5
20.02.2018 07:00:00 -0,3 -1,2 5 3 - - ENE 1018,0 1,8
20.02.2018 06:00:00 -0,1 -1,2 2 1 11 6 N 1018,1 3,0
20.02.2018 05:00:00 0,5 -0,8 8 4 11 6 ESE 1017,7 2,5
20.02.2018 04:00:00 0,1 -0,7 0 0 - - N 1018,0 2,0
20.02.2018 03:00:00 1,0 0,1 2 1 7 4 ESE 1017,6 2,5
20.02.2018 02:00:00 1,5 0,5 2 1 4 2 SE 1017,6 3,5
20.02.2018 01:00:00 1,8 0,7 2 1 - - ENE 1017,9 4,5
20.02.2018 00:00:00 2,0 0,7 4 2 7 4 SSE 1017,3 4,8
19.02.2018 23:00:00 2,3 0,7 4 2 11 6 SE 1017,4 6
19.02.2018 22:00:00 2,5 0,8 9 5 - - S 1017,6 6

tt = Température de l'air
td = dewpoint
ff = Vitesse du vent
fx = gusts
dd = Direction du vent
ppp = reduced air pressure
vv = visibility

stations d'obs. à proximité